| time (UTC) | temp F | wind direction | speed MPH | gust MPH | rain 1hr in | rain 24hr in | rain mn in | humidity % | barometer mb |
| 20260831151530 | 55 | 90 | 0.0 | 0.0 | 0.00 | 0.00 | 0.00 | 89 | 1015.9 |
| 20260831144529 | 46 | 90 | 0.0 | 0.0 | 0.00 | 0.00 | 0.00 | 95 | 1015.7 |
| 20260831143028 | 43 | 90 | 0.0 | 0.0 | 0.00 | 0.00 | 0.00 | 96 | 1015.6 |
| 20260831141608 | 42 | 90 | 0.0 | 0.0 | 0.00 | 0.00 | 0.00 | 95 | 1015.5 |
| 20260831140032 | 41 | 90 | 0.0 | 0.0 | 0.00 | 0.00 | 0.00 | 95 | 1015.4 |
| 20260831134533 | 41 | 90 | 0.0 | 0.0 | 0.00 | 0.00 | 0.00 | 95 | 1015.4 |
| 20260831133032 | 41 | 90 | 0.0 | 0.0 | 0.00 | 0.00 | 0.00 | 94 | 1015.3 |
| 20260831130027 | 41 | 90 | 0.0 | 0.0 | 0.00 | 0.00 | 0.00 | 94 | 1015.4 |
| 20260831124536 | 42 | 90 | 0.0 | 0.0 | 0.00 | 0.00 | 0.00 | 94 | 1015.4 |
| 20260831120027 | 42 | 90 | 0.0 | 0.0 | 0.00 | 0.00 | 0.00 | 92 | 1015.4 |
| 20260831114531 | 43 | 90 | 0.0 | 0.0 | 0.00 | 0.00 | 0.00 | 90 | 1015.4 |
| 20260831111531 | 43 | 90 | 0.0 | 0.0 | 0.00 | 0.00 | 0.00 | 90 | 1015.5 |
| 20260831110030 | 43 | 90 | 0.0 | 0.0 | 0.00 | 0.00 | 0.00 | 89 | 1015.5 |
| 20260831104530 | 44 | 90 | 0.0 | 0.0 | 0.00 | 0.00 | 0.00 | 89 | 1015.6 |
| 20260831103032 | 44 | 90 | 0.0 | 0.0 | 0.00 | 0.00 | 0.00 | 88 | 1015.6 |
| 20260831101529 | 44 | 90 | 0.0 | 0.0 | 0.00 | 0.00 | 0.00 | 88 | 1015.6 |
| 20260831094537 | 45 | 90 | 0.0 | 0.0 | 0.00 | 0.00 | 0.00 | 85 | 1015.9 |
| 20260831091532 | 45 | 90 | 0.0 | 0.0 | 0.00 | 0.00 | 0.00 | 85 | 1016.2 |
| 20260831090038 | 45 | 90 | 0.0 | 0.0 | 0.00 | 0.00 | 0.00 | 86 | 1016.2 |
| 20260831084528 | 46 | 90 | 0.0 | 0.0 | 0.00 | 0.00 | 0.00 | 85 | 1016.2 |
| 20260831083032 | 46 | 90 | 0.0 | 0.0 | 0.00 | 0.00 | 0.00 | 84 | 1016.4 |
| 20260831081606 | 46 | 90 | 0.0 | 0.0 | 0.00 | 0.00 | 0.00 | 83 | 1016.6 |
| 20260831080030 | 47 | 90 | 0.0 | 0.0 | 0.00 | 0.00 | 0.00 | 81 | 1016.7 |
| 20260831074534 | 48 | 90 | 0.0 | 0.0 | 0.00 | 0.00 | 0.00 | 80 | 1016.7 |
| 20260831073031 | 48 | 90 | 0.0 | 0.0 | 0.00 | 0.00 | 0.00 | 78 | 1016.7 |
| 20260831071650 | 49 | 90 | 0.0 | 2.0 | 0.00 | 0.00 | 0.00 | 78 | 1016.8 |
| 20260831070031 | 49 | 90 | 0.0 | 0.0 | 0.00 | 0.00 | 0.00 | 77 | 1016.9 |
| 20260831064532 | 49 | 90 | 0.0 | 0.0 | 0.00 | 0.00 | 0.00 | 76 | 1016.9 |
| 20260831063033 | 50 | 90 | 0.0 | 0.0 | 0.00 | 0.00 | 0.00 | 77 | 1017.0 |
| 20260831061531 | 50 | 90 | 0.0 | 0.0 | 0.00 | 0.00 | 0.00 | 74 | 1017.1 |
| 20260831060146 | 52 | 90 | 0.0 | 0.0 | 0.00 | 0.00 | 0.00 | 71 | 1017.2 |
| 20260831054530 | 52 | 90 | 0.0 | 0.0 | 0.00 | 0.00 | 0.00 | 70 | 1017.3 |
| 20260831053029 | 53 | 116 | 1.0 | 4.0 | 0.00 | 0.00 | 0.00 | 69 | 1017.4 |
| 20260831051607 | 53 | 112 | 0.0 | 0.0 | 0.00 | 0.00 | 0.00 | 69 | 1017.5 |
| 20260831050030 | 54 | 112 | 0.0 | 0.0 | 0.00 | 0.00 | 0.00 | 66 | 1017.5 |
| 20260831044538 | 56 | 112 | 0.0 | 0.0 | 0.00 | 0.00 | 0.00 | 62 | 1017.5 |
| 20260831041542 | 60 | 162 | 0.0 | 4.0 | 0.00 | 0.00 | 0.00 | 55 | 1017.6 |
| 20260831034528 | 63 | 143 | 4.0 | 9.0 | 0.00 | 0.00 | 0.00 | 52 | 1017.4 |
| 20260831031536 | 65 | 141 | 4.0 | 7.0 | 0.00 | 0.00 | 0.00 | 49 | 1017.2 |
| 20260831030029 | 65 | 153 | 5.0 | 10.0 | 0.00 | 0.00 | 0.00 | 48 | 1017.1 |
| 20260831024530 | 66 | 163 | 4.0 | 8.0 | 0.00 | 0.00 | 0.00 | 47 | 1017.2 |
| 20260831023151 | 68 | 177 | 4.0 | 7.0 | 0.00 | 0.00 | 0.00 | 44 | 1017.1 |
| 20260831021531 | 70 | 220 | 3.0 | 5.0 | 0.00 | 0.00 | 0.00 | 43 | 1017.0 |
| 20260831020033 | 71 | 288 | 5.0 | 8.0 | 0.00 | 0.00 | 0.00 | 41 | 1017.0 |
| 20260831011530 | 72 | 315 | 5.0 | 10.0 | 0.00 | 0.00 | 0.00 | 39 | 1017.2 |
| 20260831010031 | 73 | 305 | 4.0 | 8.0 | 0.00 | 0.00 | 0.00 | 38 | 1017.2 |
| 20260831004537 | 73 | 302 | 4.0 | 9.0 | 0.00 | 0.00 | 0.00 | 37 | 1017.2 |
| 20260831001605 | 72 | 312 | 5.0 | 10.0 | 0.00 | 0.00 | 0.00 | 37 | 1017.3 |
| 20260831000032 | 72 | 337 | 6.0 | 15.0 | 0.00 | 0.00 | 0.00 | 36 | 1017.4 |
| 20260830234531 | 72 | 349 | 6.0 | 13.0 | 0.00 | 0.00 | 0.00 | 37 | 1017.5 |
| 20260830233104 | 71 | 305 | 5.0 | 10.0 | 0.00 | 0.00 | 0.00 | 38 | 1017.7 |
| 20260830231532 | 71 | 355 | 6.0 | 12.0 | 0.00 | 0.00 | 0.00 | 41 | 1017.8 |
| 20260830230038 | 70 | 359 | 6.0 | 12.0 | 0.00 | 0.00 | 0.00 | 43 | 1017.9 |
| 20260830223030 | 70 | 345 | 7.0 | 13.0 | 0.00 | 0.00 | 0.00 | 44 | 1018.2 |
| 20260830221529 | 70 | 348 | 6.0 | 11.0 | 0.00 | 0.00 | 0.00 | 45 | 1018.5 |
| 20260830220031 | 70 | 13 | 6.0 | 11.0 | 0.00 | 0.00 | 0.00 | 45 | 1018.6 |
| 20260830214651 | 69 | 7 | 6.0 | 13.0 | 0.00 | 0.00 | 0.00 | 46 | 1018.8 |
| 20260830213031 | 69 | 359 | 7.0 | 13.0 | 0.00 | 0.00 | 0.00 | 47 | 1019.0 |
| 20260830211530 | 68 | 350 | 6.0 | 12.0 | 0.00 | 0.00 | 0.00 | 47 | 1019.0 |
| 20260830210106 | 67 | 334 | 7.0 | 11.0 | 0.00 | 0.00 | 0.00 | 49 | 1019.0 |
| 20260830204532 | 66 | 352 | 6.0 | 14.0 | 0.00 | 0.00 | 0.00 | 50 | 1019.3 |
| 20260830203030 | 66 | 7 | 7.0 | 14.0 | 0.00 | 0.00 | 0.00 | 51 | 1019.5 |
| 20260830201531 | 65 | 357 | 7.0 | 12.0 | 0.00 | 0.00 | 0.00 | 52 | 1019.6 |
| 20260830200107 | 65 | 355 | 8.0 | 11.0 | 0.00 | 0.00 | 0.00 | 53 | 1019.7 |
| 20260830190030 | 63 | 338 | 6.0 | 12.0 | 0.00 | 0.00 | 0.00 | 57 | 1020.3 |
| 20260830184530 | 62 | 9 | 8.0 | 11.0 | 0.00 | 0.00 | 0.00 | 58 | 1020.5 |
| 20260830183106 | 62 | 3 | 7.0 | 12.0 | 0.00 | 0.00 | 0.00 | 58 | 1020.6 |
| 20260830181530 | 62 | 358 | 7.0 | 12.0 | 0.00 | 0.00 | 0.00 | 58 | 1020.6 |
| 20260830180029 | 62 | 357 | 5.0 | 10.0 | 0.00 | 0.00 | 0.00 | 59 | 1020.6 |
| 20260830174531 | 61 | 355 | 7.0 | 11.0 | 0.00 | 0.00 | 0.00 | 60 | 1020.5 |
| 20260830171530 | 61 | 172 | 3.0 | 8.0 | 0.00 | 0.00 | 0.00 | 53 | 1020.6 |
| 20260830170106 | 59 | 146 | 6.0 | 11.0 | 0.00 | 0.00 | 0.00 | 56 | 1020.8 |
| 20260830164605 | 59 | 163 | 5.0 | 9.0 | 0.00 | 0.00 | 0.00 | 58 | 1020.9 |
| 20260830163028 | 58 | 163 | 7.0 | 12.0 | 0.00 | 0.00 | 0.00 | 59 | 1021.1 |
| 20260830161529 | 57 | 192 | 5.0 | 11.0 | 0.00 | 0.00 | 0.00 | 61 | 1021.2 |
| 20260830160031 | 56 | 179 | 6.0 | 11.0 | 0.00 | 0.00 | 0.00 | 63 | 1021.3 |
| 20260830154534 | 55 | 183 | 7.0 | 12.0 | 0.00 | 0.00 | 0.00 | 64 | 1021.4 |
| 20260830153032 | 54 | 194 | 6.0 | 12.0 | 0.00 | 0.00 | 0.00 | 66 | 1021.4 |